This demonstration page uses our WeatherBlox Daily Observations layout. Learn more.

Left ArrowRight Arrow

41.12389, -100.76542

Hourly Observations for March 12, 2018

Temp ( °F °C ) Dew Point ( °F °C ) Humidity (%) Winds ( mph kmh ) Pressure ( in mb ) Visibility ( mi km ) Precip ( " mm )
12:53 am 00:53 Clear 20 -6.7 14 -10 78 78 Calm 30.46 1032 10 16 0.00 0.00
1:53 am 01:53 Clear 19 -7.2 13 -10.6 77 77 NNW 5 7 30.46 1032 10 16 0.00 0.00
2:53 am 02:53 Clear 19 -7.2 12 -11.1 74 74 NNW 3 6 30.45 1031 10 16 0.00 0.00
3:53 am 03:53 Clear 18 -7.8 14 -10 84 84 NNW 3 6 30.44 1031 10 16 0.00 0.00
4:53 am 04:53 Clear 16 -8.9 12 -11.1 84 84 Calm 30.43 1030 10 16 0.00 0.00
5:53 am 05:53 Clear 16 -8.9 12 -11.1 84 84 Calm 30.42 1030 10 16 0.00 0.00
6:53 am 06:53 Clear 14 -10 11 -11.7 88 88 NW 5 7 30.44 1031 10 16 0.00 0.00
7:53 am 07:53 Clear 16 -8.9 11 -11.7 80 80 WNW 3 6 30.45 1031 10 16 0.00 0.00
8:53 am 08:53 Sunny 21 -6.1 17 -8.3 85 85 Calm 30.45 1031 10 16 0.00 0.00
9:53 am 09:53 Sunny 27 -2.8 21 -6.1 78 78 Calm 30.46 1032 10 16 0.00 0.00
10:53 am 10:53 Sunny 35 1.7 22 -5.6 59 59 Calm 30.45 1031 10 16 0.00 0.00
11:53 am 11:53 Sunny 42 5.6 18 -7.8 38 38 VRB 3 6 30.44 1031 10 16 0.00 0.00
12:53 pm 12:53 Sunny 44 6.7 13 -10.6 28 28 VRB 5 7 30.42 1030 10 16 0.00 0.00
1:53 pm 13:53 Sunny 47 8.3 11 -11.7 23 23 S 5 7 30.40 1029 10 16 0.00 0.00
2:53 pm 14:53 Sunny 48 8.9 11 -11.7 22 22 ESE 6 9 30.37 1028 10 16 0.00 0.00
3:53 pm 15:53 Mostly Sunny 48 8.9 12 -11.1 23 23 VRB 3 6 30.36 1028 10 16 0.00 0.00
4:53 pm 16:53 Sunny 49 9.4 12 -11.1 22 22 ESE 8 13 30.35 1028 10 16 0.00 0.00
5:53 pm 17:53 Sunny 48 8.9 14 -10 25 25 SE 8 13 30.35 1028 10 16 0.00 0.00
6:53 pm 18:53 Partly Cloudy 45 7.2 13 -10.6 27 27 SSE 5 7 30.36 1028 10 16 0.00 0.00
7:53 pm 19:53 Mostly Cloudy 38 3.3 16 -8.9 41 41 ESE 3 6 30.39 1029 10 16 0.00 0.00
8:53 pm 20:53 Mostly Cloudy 38 3.3 17 -8.3 43 43 ENE 6 9 30.39 1029 10 16 0.00 0.00
9:53 pm 21:53 Mostly Clear 34 1.1 16 -8.9 48 48 E 3 6 30.40 1029 10 16 0.00 0.00
10:53 pm 22:53 Clear 29 -1.7 16 -8.9 58 58 ENE 5 7 30.39 1029 10 16 0.00 0.00
11:53 pm 23:53 Clear 29 -1.7 15 -9.4 56 56 E 5 7 30.39 1029 10 16 0.00 0.00

Powered by AerisWeather